FW0765 Weather Reports


Display with metric or nautical units.
time (UTC)temp
F
wind
direction
speed
MPH
gust
MPH
rain 1hr
in
rain 24hr
in
rain mn
in
humidity
%
barometer
mb
20210122021527 53 11 0.0 0.0 0.00 0.04 0.04 95 1013.7
20210122020034 52 139 0.0 0.0 0.00 0.04 0.04 94 1013.4
20210122014535 52 124 0.0 0.0 0.00 0.04 0.04 94 1013.0
20210122013024 53 123 0.0 0.0 0.00 0.04 0.04 94 1013.3
20210122011554 54 302 0.0 0.0 0.00 0.04 0.04 93 1013.6
20210122010041 55 302 0.0 0.0 0.00 0.04 0.04 93 1013.9
20210122004526 55 302 0.0 0.0 0.00 0.04 0.04 93 1013.6
20210122003032 56 302 0.0 0.0 0.00 0.04 0.04 92 1013.4
20210122001551 56 285 0.0 0.0 0.00 0.04 0.04 92 1013.2
20210122000046 57 232 0.0 0.0 0.00 0.04 0.04 92 1012.9
20210121234525 57 292 0.0 2.0 0.00 0.04 0.04 91 1012.6
20210121233035 57 294 0.0 0.0 0.00 0.04 0.04 92 1012.7
20210121231522 57 171 0.0 8.0 0.00 0.04 0.04 92 1012.2
20210121230020 57 147 3.0 13.0 0.00 0.04 0.04 92 1011.9
20210121224512 57 167 1.0 10.0 0.00 0.04 0.04 92 1012.3
20210121223230 57 157 0.0 6.0 0.00 0.04 0.04 92 1012.7
20210121221646 57 199 1.0 6.0 0.00 0.04 0.04 91 1013.4
20210121220235 57 190 2.0 9.0 0.00 0.04 0.04 91 1013.4
20210121214607 56 170 0.0 3.0 0.00 0.04 0.04 92 1013.4
20210121213124 56 186 0.0 12.0 0.00 0.04 0.04 91 1013.6
20210121211633 55 154 0.0 6.0 0.00 0.04 0.04 90 1013.8
20210121210113 55 156 0.0 10.0 0.00 0.04 0.04 91 1014.3
20210121204643 54 158 0.0 12.0 0.00 0.04 0.04 92 1014.6
20210121203116 54 148 0.0 10.0 0.00 0.04 0.04 91 1015.2
20210121201542 54 188 0.0 5.0 0.00 0.04 0.04 91 1015.5
20210121200046 54 192 0.0 2.0 0.00 0.04 0.04 92 1015.8
20210121194610 54 186 0.0 3.0 0.00 0.04 0.04 92 1016.0
20210121193111 53 207 0.0 0.0 0.01 0.04 0.04 92 1016.3
20210121191556 53 232 0.0 0.0 0.01 0.04 0.04 91 1016.6
20210121190231 53 227 0.0 0.0 0.02 0.04 0.04 92 1016.9
20210121184633 52 241 0.0 0.0 0.03 0.05 0.04 92 1017.6
20210121183038 52 196 0.0 1.0 0.02 0.04 0.03 92 1017.6
20210121181525 51 198 0.0 0.0 0.02 0.04 0.03 92 1018.0
20210121180022 51 198 0.0 0.0 0.01 0.03 0.02 91 1018.3
20210121174535 50 198 0.0 0.0 0.00 0.06 0.01 91 1018.7
20210121173030 50 325 0.0 0.0 0.00 0.06 0.01 90 1018.7
20210121171516 50 90 0.0 0.0 0.00 0.06 0.01 90 1018.7
20210121170024 50 90 0.0 0.0 0.01 0.06 0.01 90 1018.7
20210121164520 50 40 0.0 0.0 0.01 0.06 0.01 91 1018.9
20210121163045 49 40 0.0 4.0 0.01 0.06 0.01 91 1019.1
20210121161521 50 344 0.0 4.0 0.01 0.06 0.01 90 1019.2
20210121160019 50 324 1.0 9.0 0.00 0.05 0.00 90 1019.2
20210121154523 51 225 0.0 19.0 0.00 0.07 0.00 89 1018.9
20210121153028 51 174 0.0 2.0 0.00 0.07 0.00 88 1018.3
20210121151519 52 151 0.0 1.0 0.00 0.07 0.00 87 1018.5
20210121150006 51 192 0.0 0.0 0.00 0.08 0.00 88 1018.7
20210121144735 50 145 0.0 0.0 0.00 0.08 0.00 88 1018.3
20210121143148 50 150 0.0 0.0 0.00 0.08 0.00 87 1018.1
20210121141701 50 211 0.0 0.0 0.00 0.08 0.00 87 1018.2
20210121140222 49 229 0.0 0.0 0.00 0.08 0.00 87 1018.4
20210121134643 49 231 0.0 0.0 0.00 0.09 0.00 87 1018.5
20210121133119 50 222 0.0 0.0 0.00 0.09 0.00 86 1019.0
20210121131557 50 230 0.0 2.0 0.00 0.09 0.00 86 1019.3
20210121130143 49 205 0.0 1.0 0.00 0.09 0.00 87 1019.1
20210121124551 48 223 0.0 0.0 0.00 0.11 0.00 89 1019.2
20210121123125 47 180 0.0 0.0 0.00 0.11 0.00 90 1019.2
20210121121642 47 171 0.0 0.0 0.00 0.11 0.00 89 1019.1
20210121120135 47 181 0.0 0.0 0.00 0.11 0.00 89 1019.3
20210121114604 47 182 0.0 0.0 0.00 0.13 0.00 89 1019.4
20210121113159 47 181 0.0 0.0 0.00 0.13 0.00 88 1019.6
20210121111553 47 257 0.0 0.0 0.00 0.13 0.00 88 1019.3
20210121110049 47 250 0.0 0.0 0.00 0.13 0.00 87 1019.6
20210121104552 47 173 0.0 0.0 0.00 0.17 0.00 86 1019.5
20210121103201 47 188 0.0 6.0 0.00 0.17 0.00 86 1019.3
20210121101553 47 198 1.0 6.0 0.00 0.17 0.00 85 1019.7
20210121100047 48 180 0.0 2.0 0.00 0.17 0.00 86 1019.7
20210121094629 48 165 0.0 0.0 0.00 0.24 0.00 86 1019.8
20210121093110 48 146 0.0 1.0 0.00 0.24 0.00 85 1020.0
20210121091630 48 196 0.0 7.0 0.00 0.24 0.00 85 1020.3
20210121090053 48 198 0.0 1.0 0.00 0.24 0.00 86 1020.9
20210121084537 47 211 0.0 4.0 0.00 0.27 0.00 88 1021.0
20210121083048 46 200 0.0 0.0 0.00 0.27 0.00 90 1021.3
20210121081536 46 198 0.0 0.0 0.00 0.27 0.00 90 1021.6
20210121080034 46 198 0.0 0.0 0.00 0.27 0.00 90 1021.5
20210121074549 46 198 0.0 0.0 0.00 0.28 0.00 90 1021.6
20210121073051 46 215 0.0 0.0 0.00 0.28 0.00 90 1021.4
20210121071525 46 186 0.0 0.0 0.00 0.28 0.00 90 1021.4
20210121070041 46 187 0.0 3.0 0.00 0.28 0.00 90 1021.5
20210121064521 46 173 0.0 3.0 0.00 0.31 0.00 89 1021.8
20210121063024 46 201 0.0 4.0 0.00 0.31 0.00 89 1022.0
20210121061526 46 194 1.0 8.0 0.00 0.31 0.00 90 1022.4
20210121060135 46 207 0.0 9.0 0.00 0.31 0.00 90 1022.2
20210121054812 45 202 0.0 5.0 0.00 0.34 0.31 91 1022.6
20210121053157 45 199 0.0 9.0 0.00 0.34 0.31 91 1022.9
20210121050127 45 177 0.0 5.0 0.00 0.34 0.31 92 1023.3
20210121044617 45 192 0.0 7.0 0.00 0.34 0.31 92 1023.3
20210121043128 45 156 0.0 5.0 0.00 0.34 0.31 92 1022.9
20210121041820 45 175 0.0 0.0 0.00 0.34 0.31 92 1023.3
20210121040133 45 207 0.0 0.0 0.00 0.34 0.31 92 1023.3
20210121034621 45 164 0.0 0.0 0.00 0.34 0.31 92 1023.3
20210121033135 45 163 0.0 0.0 0.00 0.34 0.31 93 1023.3
20210121031912 45 180 0.0 1.0 0.00 0.34 0.31 92 1023.9
20210121030147 45 165 0.0 0.0 0.00 0.34 0.31 92 1023.8
20210121024603 46 171 0.0 0.0 0.00 0.34 0.31 91 1023.6
20210121023103 46 173 0.0 0.0 0.00 0.34 0.31 91 1023.6